Socorro, NM

5:36 AM MST on December 08, 2016 (GMT -0700)
Socorro Municipal

Weather History for KONM - December, 2013

Change the Weather History Date:

Sunday, December 1, 2013

  Actual Average Record
Temperature  
Mean Temperature 46 °F -  
Max Temperature 58 °F 54 °F 69 °F (2012)
Min Temperature 34 °F 21 °F 21 °F (2010)
Degree Days  
Heating Degree Days 19    
Moisture  
Dew Point 34 °F    
Average Humidity 72    
Maximum Humidity 93    
Minimum Humidity 42    
Precipitation  
Precipitation 0.00 in - - ()
Sea Level Pressure  
Sea Level Pressure 30.26 in    
Wind  
Wind Speed 8 mph (North)    
Max Wind Speed 17 mph    
Max Gust Speed 18 mph    
Visibility 10 miles    
Events      
Averages and records for this station are not official NWS values.
T = Trace of Precipitation, MM = Missing Value Source: NWS Daily Summary

Daily Weather History Graph

Daily Weather History Graph

Search for Another Location

Airport or City:

Trip Planner

Search our weather history database for the weather conditions in past years. The results will help you decide how hot, cold, wet, or windy it might be!

Date:

Astronomy

Dec. 01, 2013 Rise Set
Actual Time 6:55 AM MST 4:58 PM MST
Civil Twilight 6:27 AM MST 5:25 PM MST
Nautical Twilight 5:56 AM MST 5:56 PM MST
Astronomical Twilight 5:26 AM MST 6:26 PM MST
Moon 5:19 AM MST (12/1) 4:07 PM MST (12/1)
Length of Visible Light 10h 57m
Length of Day
10h 03m
Waning Crescent, 2% of the Moon is Illuminated
Dec 1
Waning Crescent
Dec 2
New
Dec 9
First Quarter
Dec 17
Full
Dec 25
Last Quarter

Hourly Weather History & Observations

Time (MST) Temp. Windchill Dew Point Humidity Pressure Visibility Wind Dir Wind Speed Gust Speed Precip Events Conditions
12:15 AM 39.2 °F 37.0 °F 34.9 °F 84% 30.27 in 10.0 mi NNW 3.5 mph - N/A   Clear
12:35 AM 38.8 °F 36.5 °F 35.1 °F 86% 30.26 in 10.0 mi NNW 3.5 mph - N/A   Clear
12:55 AM 38.7 °F 34.3 °F 34.9 °F 86% 30.26 in 10.0 mi NNW 5.8 mph - N/A   Clear
1:15 AM 39.2 °F 34.2 °F 34.7 °F 84% 30.26 in 10.0 mi NW 6.9 mph - N/A   Clear
1:35 AM 39.4 °F 36.1 °F 34.9 °F 84% 30.26 in 10.0 mi NNW 4.6 mph - N/A   Clear
1:55 AM 40.1 °F 35.3 °F 35.1 °F 82% 30.26 in 10.0 mi NNW 6.9 mph - N/A   Clear
2:15 AM 39.6 °F 35.4 °F 34.9 °F 83% 30.26 in 10.0 mi NW 5.8 mph - N/A   Clear
2:35 AM 38.7 °F 34.3 °F 34.9 °F 86% 30.26 in 10.0 mi NW 5.8 mph - N/A   Clear
2:55 AM 38.3 °F 34.8 °F 34.7 °F 87% 30.26 in 10.0 mi NNW 4.6 mph - N/A   Clear
3:15 AM 38.3 °F 34.8 °F 34.9 °F 87% 30.26 in 10.0 mi NNW 4.6 mph - N/A   Clear
3:35 AM 38.3 °F 34.8 °F 35.1 °F 88% 30.24 in 10.0 mi NNW 4.6 mph - N/A   Clear
3:55 AM 38.7 °F 32.9 °F 34.9 °F 86% 30.24 in 10.0 mi NNW 8.1 mph - N/A   Clear
4:15 AM 39.0 °F 34.0 °F 35.1 °F 86% 30.24 in 10.0 mi NNW 6.9 mph - N/A   Clear
4:35 AM 38.5 °F 33.4 °F 34.7 °F 86% 30.26 in 10.0 mi NNW 6.9 mph - N/A   Clear
4:55 AM 37.9 °F 32.1 °F 34.5 °F 87% 30.26 in 10.0 mi NNW 8.1 mph - N/A   Clear
5:15 AM 36.9 °F 29.6 °F 34.0 °F 89% 30.27 in 10.0 mi NNW 10.4 mph - N/A   Clear
5:35 AM 36.1 °F 29.9 °F 33.8 °F 91% 30.27 in 10.0 mi North 8.1 mph - N/A   Clear
5:55 AM 36.5 °F 28.7 °F 34.0 °F 91% 30.27 in 10.0 mi North 11.5 mph - N/A   Clear
6:15 AM 36.5 °F 27.8 °F 33.8 °F 90% 30.28 in 10.0 mi North 13.8 mph - N/A   Clear
6:35 AM 36.5 °F 28.2 °F 33.8 °F 90% 30.28 in 10.0 mi North 12.7 mph - N/A   Clear
6:55 AM 35.2 °F 26.6 °F 33.1 °F 92% 30.28 in 10.0 mi North 12.7 mph - N/A   Clear
7:15 AM 34.7 °F 26.9 °F 32.9 °F 93% 30.30 in 10.0 mi North 10.4 mph - N/A   Clear
7:35 AM 34.9 °F 26.6 °F 33.1 °F 93% 30.31 in 10.0 mi North 11.5 mph - N/A   Clear
7:55 AM 35.1 °F 27.4 °F 33.3 °F 93% 30.31 in 10.0 mi North 10.4 mph - N/A   Clear
8:15 AM 37.8 °F 31.3 °F 34.0 °F 86% 30.31 in 10.0 mi North 9.2 mph - N/A   Clear
8:35 AM 37.4 °F 30.3 °F 33.8 °F 87% 30.32 in 10.0 mi North 10.4 mph - N/A   Clear
8:55 AM 39.6 °F 32.1 °F 34.5 °F 82% 30.33 in 10.0 mi North 12.7 mph - N/A   Clear
9:15 AM 41.4 °F 34.3 °F 34.9 °F 78% 30.33 in 10.0 mi North 12.7 mph - N/A   Clear
9:35 AM 43.2 °F 36.6 °F 35.2 °F 74% 30.33 in 10.0 mi North 12.7 mph - N/A   Clear
9:55 AM 43.7 °F 36.6 °F 35.1 °F 72% 30.34 in 10.0 mi North 15.0 mph 18.4 mph N/A   Clear
10:15 AM 45.0 °F 39.3 °F 34.7 °F 67% 30.34 in 10.0 mi North 11.5 mph - N/A   Clear
10:35 AM 46.6 °F - 35.1 °F 64% 30.33 in 10.0 mi North 9.2 mph - N/A   Clear
10:55 AM 48.7 °F - 35.2 °F 60% 30.32 in 10.0 mi North 8.1 mph - N/A   Clear
11:15 AM 48.2 °F - 34.5 °F 59% 30.30 in 10.0 mi North 10.4 mph - N/A   Clear
11:35 AM 50.2 °F - 35.1 °F 56% 30.29 in 10.0 mi North 12.7 mph - N/A   Clear
11:55 AM 51.3 °F - 35.1 °F 54% 30.28 in 10.0 mi North 17.3 mph - N/A   Clear
12:15 PM 51.1 °F - 34.9 °F 54% 30.26 in 10.0 mi NNW 11.5 mph - N/A   Clear
12:35 PM 52.2 °F - 35.1 °F 52% 30.25 in 10.0 mi North 8.1 mph - N/A   Clear
12:55 PM 52.7 °F - 35.6 °F 52% 30.24 in 10.0 mi North 9.2 mph - N/A   Clear
1:15 PM 54.7 °F - 35.6 °F 49% 30.23 in 10.0 mi North 11.5 mph - N/A   Clear
1:35 PM 56.1 °F - 35.6 °F 46% 30.22 in 10.0 mi North 11.5 mph 16.1 mph N/A   Clear
1:55 PM 57.2 °F - 35.6 °F 44% 30.22 in 10.0 mi North 11.5 mph - N/A   Clear
2:15 PM 57.2 °F - 35.1 °F 43% 30.22 in 10.0 mi NNW 9.2 mph - N/A   Clear
2:35 PM 58.1 °F - 34.9 °F 42% 30.22 in 10.0 mi North 10.4 mph - N/A   Clear
2:55 PM 57.4 °F - 34.9 °F 43% 30.22 in 10.0 mi North 11.5 mph - N/A   Clear
3:15 PM 57.6 °F - 34.7 °F 42% 30.22 in 10.0 mi North 10.4 mph - N/A   Clear
3:35 PM 57.0 °F - 34.7 °F 43% 30.21 in 10.0 mi North 9.2 mph - N/A   Clear
3:55 PM 55.0 °F - 34.3 °F 46% 30.22 in 10.0 mi North 11.5 mph - N/A   Clear
4:15 PM 55.4 °F - 34.3 °F 45% 30.21 in 10.0 mi North 10.4 mph - N/A   Clear
4:35 PM 53.6 °F - 34.3 °F 48% 30.21 in 10.0 mi North 9.2 mph - N/A   Clear
4:55 PM 52.3 °F - 34.3 °F 50% 30.22 in 10.0 mi Calm Calm - N/A   Clear
5:15 PM 50.2 °F - 34.3 °F 55% 30.22 in 10.0 mi North 6.9 mph - N/A   Clear
5:35 PM 48.6 °F - 34.5 °F 58% 30.22 in 10.0 mi NNW 6.9 mph - N/A   Clear
5:55 PM 48.2 °F - 34.3 °F 59% 30.23 in 10.0 mi North 8.1 mph - N/A   Clear
6:15 PM 47.3 °F - 34.2 °F 60% 30.23 in 10.0 mi North 9.2 mph - N/A   Clear
6:35 PM 45.9 °F 42.3 °F 34.3 °F 64% 30.23 in 10.0 mi NNW 6.9 mph - N/A   Clear
6:55 PM 46.2 °F 40.8 °F 34.0 °F 62% 30.23 in 10.0 mi North 11.5 mph - N/A   Clear
7:15 PM 45.1 °F 39.5 °F 34.0 °F 65% 30.23 in 10.0 mi NNW 11.5 mph - N/A   Clear
7:35 PM 43.7 °F 37.7 °F 33.8 °F 68% 30.23 in 10.0 mi NNW 11.5 mph - N/A   Clear
7:55 PM 42.8 °F 37.5 °F 33.8 °F 70% 30.24 in 10.0 mi North 9.2 mph - N/A   Clear
8:15 PM 41.9 °F 35.4 °F 33.8 °F 73% 30.24 in 10.0 mi North 11.5 mph - N/A   Clear
8:35 PM 41.2 °F 36.0 °F 33.8 °F 75% 30.25 in 10.0 mi North 8.1 mph - N/A   Clear
8:55 PM 40.5 °F 35.8 °F 33.4 °F 76% 30.26 in 10.0 mi North 6.9 mph - N/A   Clear
9:15 PM 40.1 °F 34.7 °F 33.3 °F 77% 30.26 in 10.0 mi North 8.1 mph - N/A   Clear
9:35 PM 39.6 °F 36.3 °F 33.1 °F 78% 30.26 in 10.0 mi North 4.6 mph - N/A   Clear
9:55 PM 39.0 °F 36.8 °F 32.9 °F 79% 30.26 in 10.0 mi North 3.5 mph - N/A   Clear
10:15 PM 37.9 °F - 32.4 °F 80% 30.26 in 10.0 mi Calm Calm - N/A   Clear
10:35 PM 37.9 °F 35.5 °F 32.0 °F 79% 30.25 in 10.0 mi North 3.5 mph - N/A   Clear
10:55 PM 38.1 °F 30.7 °F 32.0 °F 79% 30.24 in 10.0 mi North 11.5 mph - N/A   Clear
11:15 PM 37.2 °F 29.6 °F 32.0 °F 81% 30.24 in 10.0 mi North 11.5 mph - N/A   Clear
11:35 PM 36.9 °F 30.1 °F 32.0 °F 83% 30.24 in 10.0 mi North 9.2 mph - N/A   Clear
11:55 PM 35.2 °F 28.1 °F 31.6 °F 87% 30.23 in 10.0 mi North 9.2 mph - N/A   Clear